QPF
0.00 0.00 0.00 0.00 0.00 0.00 0.00 0.00 0.00 0.00 0.00 0.00 0.00 0.00 0.00 0.00 0.00 0.00 0.00 0.00 0.00 0.00 0.00 0.00 0.00 0.00 0.00 0.00 0.00 0.00 0.00 0.00 0.00 0.00 0.00 0.00 0.00 0.00 0.00 0.00 0.00 0.00 0.00 0.00 0.00 0.00 0.00 0.00 0.00 0.00 0.00 0.00 0.00 0.00
0.00 0.00 0.00 0.00 0.00 0.00 0.00 0.00 0.00 0.00 0.00 0.00 0.00 0.00 0.00 0.00 0.00 0.00 0.00 0.00 0.00 0.00 0.00 0.00 0.00 0.00 0.00 0.00 0.00 0.00 0.00 0.00 0.00 0.00 0.00 0.00 0.00 0.00 0.00 0.00 0.00 0.00 0.00 0.00 0.00 0.00 0.00 0.00 0.00 0.00 0.00 0.00 0.00 0.00
0.00 0.00 0.00 0.00 0.00 0.00 0.00 0.00 0.00 0.00 0.00 0.00 0.00 0.00 0.00 0.00 0.00 0.00 0.00 0.00 0.00 0.00 0.00 0.00 0.00 0.00 0.00 0.00 0.00 0.00 0.00 0.00 0.00 0.00 0.00 0.00 0.00 0.00 0.00 0.00 0.00 0.00 0.00 0.00 0.00 0.00 0.00 0.00 0.00 0.00 0.00 0.00 0.00 0.00
0.00 0.00 0.00 0.00 0.00 0.00 0.00 0.00 0.00 0.00 0.00 0.00 0.00 0.00 0.00 0.00 0.00 0.00 0.00 0.00 0.00 0.00 0.00 0.00 0.00 0.00 0.00 0.00 0.00 0.00 0.00 0.00 0.00 0.00 0.00 0.00 0.00 0.00 0.00 0.00 0.00 0.00 0.00 0.00 0.00 0.00 0.00 0.00 0.00 0.00 0.00 0.00 0.00 0.00
0.00 0.01 0.01 0.00 0.00 0.00 0.00 0.00 0.00 0.00 0.00 0.00 0.00 0.00 0.00 0.00 0.00 0.00 0.00 0.00 0.00 0.00 0.00 0.00 0.00 0.00 0.00 0.00 0.00 0.00 0.00 0.00 0.00 0.00 0.00 0.00 0.00 0.00 0.00 0.00 0.00 0.00 0.00 0.00 0.00 0.00 0.00 0.00 0.00 0.00 0.00 0.00 0.00 0.00
0.01 0.01 0.01 0.01 0.00 0.00 0.00 0.00 0.00 0.00 0.00 0.00 0.00 0.00 0.00 0.00 0.00 0.00 0.00 0.00 0.00 0.00 0.00 0.00 0.00 0.00 0.00 0.00 0.00 0.00 0.00 0.00 0.00 0.00 0.00 0.00 0.00 0.00 0.00 0.00 0.00 0.00 0.00 0.00 0.00 0.00 0.00 0.00 0.00 0.00 0.00 0.00 0.00 0.00
0.01 0.02 0.01 0.01 0.00 0.00 0.00 0.00 0.00 0.00 0.00 0.00 0.00 0.00 0.00 0.00 0.00 0.00 0.00 0.00 0.00 0.00 0.00 0.00 0.00 0.00 0.00 0.00 0.00 0.00 0.00 0.00 0.00 0.00 0.00 0.00 0.00 0.00 0.00 0.00 0.00 0.00 0.00 0.00 0.00 0.00 0.00 0.00 0.00 0.00 0.00 0.00 0.00 0.00
0.01 0.02 0.02 0.01 0.00 0.00 0.00 0.00 0.00 0.00 0.00 0.00 0.00 0.00 0.00 0.00 0.00 0.00 0.00 0.00 0.00 0.00 0.00 0.00 0.00 0.00 0.00 0.00 0.00 0.00 0.00 0.00 0.00 0.00 0.00 0.00 0.00 0.00 0.00 0.00 0.00 0.00 0.00 0.00 0.00 0.00 0.00 0.00 0.00 0.00 0.00 0.00 0.00 0.00
0.02 0.03 0.03 0.01 0.00 0.00 0.00 0.00 0.00 0.00 0.00 0.00 0.00 0.00 0.00 0.00 0.00 0.00 0.00 0.00 0.00 0.00 0.00 0.00 0.00 0.00 0.00 0.00 0.00 0.00 0.00 0.00 0.00 0.00 0.00 0.00 0.00 0.00 0.00 0.00 0.00 0.00 0.00 0.00 0.00 0.00 0.00 0.00 0.00 0.00 0.00 0.00 0.00 0.00
0.02 0.03 0.03 0.01 0.00 0.00 0.00 0.00 0.00 0.00 0.00 0.00 0.00 0.00 0.00 0.00 0.00 0.00 0.00 0.00 0.00 0.00 0.00 0.00 0.00 0.00 0.00 0.00 0.00 0.00 0.00 0.00 0.00 0.00 0.00 0.00 0.00 0.00 0.00 0.00 0.00 0.00 0.00 0.00 0.00 0.00 0.00 0.00 0.00 0.00 0.00 0.00 0.00 0.00
0.02 0.03 0.02 0.01 0.00 0.00 0.00 0.00 0.00 0.00 0.00 0.00 0.00 0.00 0.00 0.00 0.00 0.00 0.00 0.00 0.00 0.00 0.00 0.00 0.00 0.00 0.00 0.00 0.00 0.00 0.00 0.00 0.00 0.00 0.00 0.00 0.00 0.00 0.00 0.00 0.00 0.00 0.00 0.00 0.00 0.00 0.00 0.00 0.00 0.00 0.00 0.00 0.00 0.00
0.01 0.03 0.01 0.00 0.00 0.00 0.00 0.00 0.00 0.00 0.00 0.00 0.00 0.00 0.00 0.00 0.00 0.00 0.00 0.00 0.00 0.00 0.00 0.00 0.00 0.00 0.00 0.00 0.00 0.00 0.00 0.00 0.00 0.00 0.00 0.00 0.00 0.00 0.00 0.00 0.00 0.00 0.00 0.00 0.00 0.00 0.00 0.00 0.00 0.00 0.00 0.00 0.00 0.00
0.01 0.02 0.01 0.00 0.00 0.00 0.00 0.00 0.00 0.00 0.00 0.00 0.00 0.00 0.00 0.00 0.00 0.00 0.00 0.00 0.00 0.00 0.00 0.00 0.00 0.00 0.00 0.00 0.00 0.00 0.00 0.00 0.00 0.00 0.00 0.00 0.00 0.00 0.00 0.00 0.00 0.00 0.00 0.00 0.00 0.00 0.00 0.00 0.00 0.00 0.00 0.00 0.00 0.00
0.01 0.01 0.01 0.00 0.00 0.00 0.00 0.00 0.00 0.00 0.01 0.00 0.00 0.00 0.00 0.00 0.00 0.00 0.00 0.00 0.00 0.00 0.00 0.00 0.00 0.00 0.00 0.00 0.00 0.00 0.00 0.00 0.00 0.00 0.00 0.00 0.00 0.00 0.00 0.00 0.00 0.00 0.00 0.00 0.00 0.00 0.00 0.00 0.00 0.00 0.00 0.00 0.00 0.00
0.00 0.01 0.01 0.00 0.00 0.00 0.00 0.00 0.00 0.02 0.02 0.02 0.00 0.00 0.00 0.00 0.00 0.00 0.00 0.00 0.00 0.00 0.00 0.00 0.00 0.00 0.00 0.00 0.00 0.00 0.00 0.00 0.00 0.00 0.00 0.00 0.00 0.00 0.00 0.00 0.00 0.00 0.00 0.00 0.00 0.00 0.00 0.00 0.00 0.00 0.00 0.00 0.00 0.00
0.00 0.00 0.01 0.01 0.01 0.00 0.00 0.00 0.01 0.02 0.00 0.00 0.00 0.00 0.00 0.00 0.00 0.00 0.00 0.00 0.00 0.00 0.00 0.00 0.00 0.00 0.00 0.00 0.00 0.00 0.00 0.00 0.00 0.00 0.00 0.00 0.00 0.00 0.00 0.00 0.00 0.00 0.00 0.00 0.00 0.00 0.00 0.00 0.00 0.00 0.00 0.00 0.00 0.00
0.00 0.00 0.00 0.01 0.01 0.00 0.00 0.00 0.00 0.01 0.01 0.00 0.00 0.00 0.00 0.00 0.00 0.00 0.00 0.00 0.00 0.00 0.00 0.00 0.00 0.00 0.00 0.00 0.00 0.00 0.00 0.00 0.00 0.00 0.00 0.00 0.00 0.00 0.00 0.00 0.00 0.00 0.00 0.00 0.00 0.00 0.00 0.00 0.00 0.00 0.00 0.00 0.00 0.00
0.00 0.00 0.00 0.01 0.01 0.00 0.00 0.00 0.00 0.00 0.00 0.00 0.00 0.00 0.00 0.00 0.00 0.00 0.00 0.00 0.00 0.00 0.00 0.00 0.00 0.00 0.00 0.00 0.00 0.00 0.00 0.00 0.00 0.00 0.00 0.00 0.00 0.00 0.00 0.00 0.00 0.00 0.00 0.00 0.00 0.00 0.00 0.00 0.00 0.00 0.00 0.00 0.00 0.00
0.00 0.00 0.00 0.00 0.00 0.00 0.00 0.00 0.00 0.00 0.00 0.00 0.00 0.00 0.00 0.00 0.00 0.00 0.00 0.00 0.00 0.00 0.00 0.00 0.00 0.00 0.00 0.00 0.00 0.00 0.00 0.00 0.00 0.00 0.00 0.00 0.00 0.00 0.00 0.00 0.00 0.00 0.00 0.00 0.00 0.00 0.00 0.00 0.00 0.00 0.00 0.00 0.00 0.00
0.00 0.00 0.00 0.01 0.00 0.00 0.00 0.00 0.00 0.00 0.00 0.00 0.00 0.00 0.00 0.00 0.00 0.00 0.00 0.00 0.00 0.00 0.00 0.00 0.00 0.00 0.00 0.00 0.00 0.00 0.00 0.00 0.00 0.00 0.00 0.00 0.00 0.00 0.00 0.00 0.00 0.00 0.00 0.00 0.00 0.00 0.00 0.00 0.00 0.00 0.00 0.00 0.00 0.00
0.00 0.00 0.00 0.00 0.00 0.00 0.00 0.00 0.00 0.00 0.00 0.00 0.00 0.00 0.00 0.00 0.00 0.00 0.00 0.00 0.00 0.00 0.00 0.00 0.00 0.00 0.00 0.00 0.00 0.00 0.00 0.00 0.00 0.00 0.00 0.00 0.00 0.00 0.00 0.00 0.00 0.00 0.00 0.00 0.00 0.00 0.00 0.00 0.00 0.00 0.00 0.00 0.00 0.00
0.00 0.00 0.00 0.00 0.00 0.00 0.00 0.00 0.00 0.00 0.00 0.00 0.00 0.00 0.00 0.00 0.00 0.00 0.00 0.00 0.00 0.00 0.00 0.00 0.00 0.00 0.00 0.00 0.00 0.00 0.00 0.00 0.00 0.00 0.00 0.00 0.00 0.00 0.00 0.00 0.00 0.00 0.00 0.00 0.00 0.00 0.00 0.00 0.00 0.00 0.00 0.00 0.00 0.00
0.00 0.00 0.00 0.00 0.00 0.00 0.00 0.00 0.00 0.00 0.00 0.00 0.00 0.00 0.00 0.00 0.00 0.00 0.00 0.00 0.00 0.00 0.00 0.00 0.00 0.00 0.00 0.00 0.00 0.00 0.00 0.00 0.00 0.00 0.00 0.00 0.00 0.00 0.00 0.00 0.00 0.00 0.00 0.00 0.00 0.00 0.00 0.00 0.00 0.00 0.00 0.00 0.00 0.00
0.00 0.00 0.00 0.00 0.00 0.00 0.00 0.00 0.00 0.00 0.00 0.00 0.00 0.00 0.00 0.00 0.00 0.00 0.00 0.00 0.00 0.00 0.00 0.00 0.00 0.00 0.00 0.00 0.00 0.00 0.00 0.00 0.00 0.00 0.00 0.00 0.00 0.00 0.00 0.00 0.00 0.00 0.00 0.00 0.00 0.00 0.00 0.00 0.00 0.00 0.00 0.00 0.00 0.00
0.00 0.00 0.00 0.00 0.00 0.00 0.00 0.00 0.00 0.00 0.00 0.00 0.00 0.00 0.00 0.00 0.00 0.00 0.00 0.00 0.00 0.00 0.00 0.00 0.00 0.00 0.00 0.00 0.00 0.00 0.00 0.00 0.00 0.00 0.00 0.00 0.00 0.00 0.00 0.00 0.00 0.00 0.00 0.00 0.00 0.00 0.00 0.00 0.00 0.00 0.00 0.00 0.00 0.00
0.00 0.00 0.00 0.00 0.00 0.00 0.00 0.00 0.00 0.00 0.00 0.00 0.00 0.00 0.00 0.00 0.00 0.00 0.00 0.00 0.00 0.00 0.00 0.00 0.00 0.00 0.00 0.00 0.00 0.00 0.00 0.00 0.00 0.00 0.00 0.00 0.00 0.00 0.00 0.00 0.00 0.00 0.00 0.00 0.00 0.00 0.00 0.00 0.00 0.00 0.00 0.00 0.00 0.00
0.00 0.00 0.00 0.00 0.00 0.00 0.00 0.00 0.00 0.00 0.00 0.00 0.00 0.00 0.00 0.00 0.00 0.00 0.00 0.00 0.00 0.00 0.00 0.00 0.00 0.00 0.00 0.00 0.00 0.00 0.00 0.00 0.00 0.00 0.00 0.00 0.00 0.00 0.00 0.00 0.00 0.00 0.00 0.00 0.00 0.00 0.00 0.00 0.00 0.00 0.00 0.00 0.00 0.00
0.00 0.00 0.00 0.00 0.00 0.00 0.00 0.00 0.00 0.00 0.00 0.00 0.00 0.00 0.00 0.00 0.00 0.00 0.00 0.00 0.00 0.00 0.00 0.00 0.00 0.00 0.00 0.00 0.00 0.00 0.00 0.00 0.00 0.00 0.00 0.00 0.00 0.00 0.00 0.00 0.00 0.00 0.00 0.00 0.00 0.00 0.00 0.00 0.00 0.00 0.00 0.00 0.00 0.00
0.00 0.00 0.00 0.00 0.00 0.00 0.00 0.00 0.00 0.00 0.00 0.00 0.00 0.00 0.00 0.00 0.00 0.00 0.00 0.00 0.00 0.00 0.00 0.00 0.00 0.00 0.00 0.00 0.00 0.00 0.00 0.00 0.00 0.00 0.00 0.00 0.00 0.00 0.00 0.00 0.00 0.00 0.00 0.00 0.00 0.00 0.00 0.00 0.00 0.00 0.00 0.00 0.00 0.00
0.00 0.00 0.00 0.00 0.00 0.00 0.00 0.00 0.00 0.00 0.00 0.00 0.00 0.00 0.00 0.00 0.00 0.00 0.00 0.00 0.00 0.00 0.00 0.00 0.00 0.00 0.00 0.00 0.00 0.00 0.00 0.00 0.00 0.00 0.00 0.00 0.00 0.00 0.00 0.00 0.00 0.00 0.00 0.00 0.00 0.00 0.00 0.00 0.00 0.00 0.00 0.00 0.00 0.00
0.00 0.00 0.00 0.00 0.00 0.00 0.00 0.00 0.00 0.00 0.00 0.00 0.00 0.00 0.00 0.00 0.00 0.00 0.00 0.00 0.00 0.00 0.00 0.00 0.00 0.00 0.00 0.00 0.00 0.00 0.00 0.00 0.00 0.00 0.00 0.00 0.00 0.00 0.00 0.00 0.00 0.00 0.00 0.00 0.00 0.00 0.00 0.00 0.00 0.00 0.00 0.00 0.00 0.00
0.00 0.00 0.00 0.00 0.00 0.00 0.00 0.00 0.00 0.00 0.00 0.00 0.00 0.00 0.00 0.00 0.00 0.00 0.00 0.00 0.00 0.00 0.00 0.00 0.00 0.00 0.00 0.00 0.00 0.00 0.00 0.00 0.00 0.00 0.00 0.00 0.00 0.00 0.00 0.00 0.00 0.00 0.00 0.00 0.00 0.00 0.00 0.00 0.00 0.00 0.00 0.00 0.00 0.00
0.00 0.00 0.00 0.00 0.00 0.00 0.00 0.00 0.00 0.00 0.00 0.00 0.00 0.00 0.00 0.00 0.00 0.00 0.00 0.00 0.00 0.00 0.00 0.00 0.00 0.00 0.00 0.00 0.00 0.00 0.00 0.00 0.00 0.00 0.00 0.00 0.00 0.00 0.00 0.00 0.00 0.00 0.00 0.00 0.00 0.00 0.00 0.00 0.00 0.00 0.00 0.00 0.00 0.00
MSLP
1011.11 1010.89 1011.99 1013.12 1014.17 1014.84 1015.83 1016.59 1017.16 1017.76 1018.21 1018.57 1018.73 1018.85 1019.28 1019.63 1020.03 1020.27 1023.62 1023.72 1023.51 1027.73 1030.94 1031.38 1031.40 1031.34 1031.57 1031.44 1031.73 1033.46 1034.37 1034.84 1034.76 1034.31 1034.21 1034.27 1034.36 1034.65 1034.83 1035.09 1035.50 1035.81 1036.11 1036.49 1036.78 1036.12 1035.82 1036.75 1037.38 1037.56 1037.62 1037.53 1037.46 1037.06
1010.64 1010.01 1011.40 1012.61 1013.71 1014.39 1015.28 1016.23 1016.96 1017.57 1018.01 1018.24 1018.67 1018.98 1019.26 1019.77 1019.99 1020.13 1023.00 1024.27 1024.40 1026.47 1031.48 1032.35 1032.91 1033.12 1032.96 1032.64 1032.35 1033.44 1033.24 1033.31 1033.50 1034.02 1034.79 1034.98 1034.83 1035.18 1034.81 1034.67 1035.94 1035.92 1036.09 1036.23 1036.31 1035.79 1036.49 1037.14 1037.32 1037.67 1038.00 1037.99 1037.55 1037.34
1010.28 1009.27 1010.74 1011.97 1013.24 1013.93 1014.71 1015.84 1016.71 1017.34 1017.83 1018.18 1018.65 1019.02 1019.28 1019.65 1019.94 1019.87 1022.66 1023.71 1024.28 1028.44 1031.87 1032.41 1033.12 1033.42 1033.42 1033.52 1033.29 1032.82 1033.71 1033.82 1034.19 1034.66 1035.19 1035.63 1035.58 1035.37 1034.76 1034.73 1035.18 1036.09 1036.67 1036.38 1036.61 1036.29 1036.88 1037.38 1037.76 1037.96 1037.97 1037.96 1037.87 1037.42
1009.31 1008.70 1009.99 1011.32 1012.72 1013.51 1014.15 1015.45 1016.49 1017.26 1017.70 1018.07 1018.63 1018.99 1019.37 1019.70 1019.89 1019.98 1021.80 1023.36 1023.63 1026.37 1030.23 1033.70 1033.84 1034.04 1034.31 1033.53 1033.32 1033.12 1033.22 1034.32 1034.88 1035.37 1035.81 1036.02 1036.09 1036.31 1035.53 1035.61 1035.49 1035.83 1036.39 1035.99 1035.88 1036.49 1037.15 1037.56 1037.73 1038.04 1038.18 1038.18 1037.75 1037.29
1008.64 1008.09 1009.35 1010.70 1012.07 1013.09 1013.69 1015.06 1016.21 1017.05 1017.62 1018.13 1018.68 1019.00 1019.34 1019.68 1019.95 1020.76 1022.15 1023.88 1023.56 1024.02 1030.12 1033.47 1034.36 1034.94 1034.73 1034.17 1033.85 1033.79 1033.87 1034.34 1035.14 1035.96 1036.45 1036.72 1036.97 1036.90 1036.87 1036.42 1035.07 1035.22 1034.76 1034.95 1034.78 1035.61 1036.27 1036.97 1037.75 1038.11 1038.09 1037.74 1037.45 1037.16
1007.63 1007.34 1008.59 1010.07 1011.35 1012.44 1013.29 1014.63 1015.94 1016.87 1017.56 1018.25 1018.70 1019.16 1019.45 1019.83 1019.82 1019.44 1023.09 1024.16 1024.26 1024.08 1027.89 1033.33 1035.32 1035.24 1035.16 1034.93 1034.82 1034.92 1035.10 1035.51 1036.00 1036.42 1037.10 1037.39 1037.84 1037.36 1036.63 1035.36 1033.99 1034.52 1035.18 1035.30 1035.59 1036.32 1036.85 1037.45 1037.89 1038.26 1038.22 1037.98 1037.67 1037.21
1007.39 1006.54 1007.76 1009.32 1010.79 1011.78 1012.91 1014.30 1015.62 1016.77 1017.55 1018.45 1019.14 1019.54 1019.62 1019.74 1020.11 1021.90 1024.03 1024.57 1024.69 1024.41 1027.59 1033.40 1034.92 1035.49 1035.53 1035.34 1035.69 1035.95 1036.27 1036.67 1036.64 1037.37 1037.53 1037.47 1037.84 1037.74 1036.68 1034.81 1033.87 1034.73 1035.35 1035.92 1036.28 1036.81 1037.19 1037.72 1037.91 1038.32 1038.21 1037.90 1037.60 1037.37
1006.33 1005.69 1007.10 1008.61 1010.20 1011.11 1012.45 1013.98 1015.30 1016.73 1017.70 1018.68 1019.21 1019.64 1019.99 1020.21 1021.71 1023.19 1024.76 1024.72 1024.72 1025.41 1027.52 1032.16 1035.23 1035.52 1035.67 1035.51 1036.07 1036.81 1036.86 1037.27 1037.93 1038.17 1038.21 1037.72 1038.11 1037.70 1035.75 1033.97 1034.44 1035.05 1035.74 1036.24 1036.65 1037.10 1037.21 1037.70 1038.09 1038.11 1038.25 1037.89 1037.56 1037.01
1005.09 1004.88 1006.22 1007.67 1009.59 1010.34 1011.99 1013.59 1015.01 1016.53 1017.57 1018.30 1018.81 1019.38 1020.02 1021.85 1023.45 1024.67 1024.93 1024.85 1024.81 1025.78 1028.88 1031.30 1033.52 1035.14 1035.80 1036.28 1036.73 1037.06 1037.26 1037.65 1038.70 1038.28 1038.24 1038.34 1037.19 1035.89 1033.72 1033.90 1034.35 1034.95 1035.36 1035.85 1036.69 1037.05 1037.32 1037.52 1037.75 1038.04 1037.99 1037.66 1037.50 1037.14
1003.70 1003.90 1005.37 1006.68 1008.63 1009.72 1011.35 1013.14 1014.69 1016.11 1017.13 1018.08 1018.73 1019.98 1023.54 1025.00 1025.13 1024.86 1024.94 1025.15 1026.06 1028.09 1029.49 1031.92 1033.32 1034.87 1035.42 1036.07 1036.97 1037.24 1037.69 1038.12 1038.38 1038.61 1038.68 1037.97 1035.26 1033.96 1033.91 1033.78 1034.19 1034.98 1035.52 1036.08 1036.63 1036.98 1037.30 1037.56 1037.64 1037.92 1038.01 1037.95 1037.99 1037.73
1002.50 1003.32 1004.30 1005.38 1007.81 1009.16 1010.64 1012.49 1014.21 1015.64 1016.68 1017.97 1020.75 1023.39 1025.13 1025.24 1025.11 1025.65 1026.69 1027.20 1028.45 1029.77 1031.09 1032.64 1033.09 1034.02 1035.79 1035.48 1036.43 1037.66 1037.87 1038.58 1038.42 1038.58 1038.28 1036.49 1034.50 1033.39 1033.43 1033.72 1034.33 1035.18 1035.80 1036.23 1036.61 1036.84 1037.26 1037.51 1037.81 1037.99 1037.96 1038.11 1038.03 1037.81
1001.77 1002.15 1003.70 1004.58 1006.71 1008.42 1009.85 1011.67 1013.39 1014.00 1016.06 1017.56 1019.75 1023.11 1024.79 1025.45 1026.29 1026.95 1028.31 1028.91 1029.13 1029.84 1031.56 1032.22 1033.14 1033.81 1035.38 1035.61 1036.17 1037.88 1037.96 1038.51 1038.24 1038.25 1037.62 1035.17 1032.78 1033.07 1033.51 1033.91 1034.68 1035.37 1036.03 1036.50 1037.02 1037.42 1037.77 1037.99 1038.07 1038.05 1037.96 1038.09 1038.09 1037.84
1000.23 1001.22 1002.73 1003.97 1005.70 1007.66 1009.11 1010.95 1012.42 1014.16 1015.24 1017.71 1019.98 1023.14 1024.33 1026.16 1026.33 1026.48 1027.60 1028.32 1028.86 1029.50 1030.60 1031.53 1032.86 1033.87 1035.42 1035.85 1036.70 1037.14 1037.72 1038.10 1038.03 1037.45 1035.14 1032.65 1032.42 1032.99 1033.38 1034.07 1034.98 1035.64 1036.23 1036.68 1037.31 1037.73 1038.00 1037.96 1038.17 1038.26 1038.21 1038.31 1038.11 1037.83
998.80 1000.61 1002.28 1003.41 1004.86 1006.79 1008.51 1010.61 1011.97 1012.43 1013.96 1017.78 1020.28 1023.30 1023.62 1024.61 1024.04 1023.50 1024.01 1025.11 1026.56 1027.65 1029.01 1030.25 1031.99 1033.19 1034.63 1035.51 1036.39 1036.89 1038.02 1037.66 1037.10 1035.82 1032.64 1031.20 1031.74 1032.69 1033.33 1034.00 1034.76 1035.61 1036.10 1036.56 1037.15 1037.61 1037.83 1037.89 1037.98 1038.26 1038.39 1038.48 1038.34 1037.98
997.61 1000.06 1001.84 1002.79 1004.08 1006.27 1008.36 1009.88 1010.71 1011.69 1014.59 1017.71 1018.88 1020.31 1021.64 1021.76 1022.57 1023.18 1023.77 1024.94 1026.41 1027.55 1028.29 1030.04 1031.60 1032.57 1034.18 1035.29 1035.99 1036.94 1037.18 1036.07 1034.61 1031.93 1030.49 1030.60 1031.47 1032.39 1033.27 1033.89 1034.46 1035.25 1035.92 1036.53 1037.14 1037.54 1037.86 1038.08 1038.05 1038.00 1038.15 1038.20 1038.20 1038.03
996.71 1000.08 1001.46 1001.97 1003.33 1005.83 1008.06 1009.83 1011.47 1013.57 1015.79 1016.98 1018.30 1019.55 1020.61 1021.33 1023.22 1023.72 1024.23 1024.96 1025.73 1026.95 1028.04 1028.95 1030.96 1032.15 1033.26 1033.54 1034.54 1034.08 1033.94 1032.27 1030.16 1029.85 1029.79 1030.54 1031.31 1032.21 1033.11 1033.80 1034.42 1035.11 1035.46 1036.15 1036.79 1037.20 1037.64 1038.00 1038.20 1038.29 1038.24 1038.23 1038.14 1038.01
996.36 997.96 1000.23 1001.19 1002.98 1005.69 1007.41 1009.60 1012.01 1013.78 1015.16 1016.67 1017.72 1017.93 1018.29 1019.14 1020.19 1022.10 1022.91 1023.97 1024.98 1025.76 1026.94 1028.27 1029.87 1031.18 1032.39 1032.40 1032.41 1031.98 1030.43 1028.60 1028.50 1029.08 1029.73 1030.17 1030.89 1031.88 1032.92 1033.68 1034.44 1035.20 1035.44 1035.86 1036.46 1036.96 1037.44 1037.94 1038.32 1038.45 1038.22 1038.00 1038.07 1037.94
995.10 997.49 999.94 1000.81 1002.98 1006.01 1007.77 1009.64 1011.43 1013.37 1015.64 1016.80 1017.18 1017.89 1018.44 1018.58 1019.62 1021.32 1022.28 1023.27 1024.20 1025.18 1026.04 1026.77 1027.99 1029.55 1029.43 1029.39 1029.09 1027.92 1027.99 1028.41 1028.80 1029.46 1030.02 1030.67 1031.36 1032.30 1033.13 1033.75 1034.51 1035.19 1035.55 1035.98 1036.33 1036.71 1037.23 1037.71 1037.77 1037.88 1038.15 1037.92 1037.68 1037.71
994.48 996.75 999.89 1000.79 1001.94 1005.29 1008.39 1010.70 1011.43 1014.06 1016.50 1017.05 1017.35 1017.89 1018.35 1018.88 1019.52 1019.71 1020.62 1022.24 1023.10 1023.82 1025.07 1026.03 1026.67 1026.77 1026.63 1026.35 1025.85 1026.28 1026.96 1027.46 1028.47 1029.54 1030.07 1030.68 1031.54 1032.53 1033.23 1033.97 1034.54 1035.16 1035.66 1036.03 1036.41 1036.62 1037.02 1037.46 1037.72 1037.93 1037.93 1037.83 1037.56 1037.74
994.58 996.36 998.83 1000.08 1001.76 1005.65 1009.25 1011.69 1012.16 1013.96 1016.36 1017.14 1017.89 1018.58 1018.93 1019.59 1019.68 1020.45 1021.52 1022.31 1023.12 1024.10 1024.95 1025.00 1024.58 1024.38 1024.32 1024.49 1024.98 1025.37 1026.25 1027.21 1028.09 1029.37 1030.73 1031.56 1031.97 1032.78 1033.33 1033.85 1034.49 1035.13 1035.70 1036.14 1036.44 1036.64 1036.98 1037.30 1037.71 1037.98 1037.95 1037.73 1037.67 1037.75
995.25 997.09 998.47 1000.00 1004.07 1006.05 1008.67 1011.10 1012.90 1014.35 1015.92 1016.92 1018.12 1018.54 1019.70 1020.06 1020.78 1021.50 1022.45 1022.20 1022.85 1023.06 1023.21 1023.09 1023.54 1023.88 1024.37 1024.69 1024.94 1025.54 1026.39 1026.97 1027.21 1027.18 1028.69 1030.89 1031.97 1032.53 1033.40 1034.01 1034.62 1035.22 1035.52 1035.77 1035.91 1036.30 1036.70 1036.88 1037.38 1037.63 1037.84 1037.79 1037.88 1037.96
993.43 996.30 998.63 1001.43 1004.78 1007.83 1009.26 1010.72 1011.85 1013.61 1015.28 1016.69 1018.01 1018.76 1019.75 1020.55 1021.20 1021.62 1022.54 1021.85 1021.19 1021.65 1022.15 1022.53 1023.09 1023.72 1024.28 1024.94 1025.27 1025.58 1026.17 1026.98 1027.68 1028.55 1029.93 1031.16 1031.83 1032.55 1033.19 1033.89 1034.46 1034.90 1035.21 1035.51 1035.75 1036.02 1036.37 1036.68 1037.12 1037.52 1037.67 1037.73 1037.84 1037.85
994.23 996.81 999.60 1002.05 1005.74 1008.32 1010.35 1010.81 1011.78 1013.46 1015.22 1016.90 1017.78 1018.79 1019.91 1020.52 1020.93 1021.40 1021.24 1020.63 1020.51 1020.86 1021.52 1022.29 1022.77 1023.23 1023.86 1024.94 1025.55 1026.01 1026.53 1026.94 1027.80 1028.99 1030.07 1030.74 1031.76 1032.46 1033.17 1033.86 1034.21 1034.58 1034.83 1035.26 1035.61 1035.95 1036.20 1036.58 1036.99 1037.38 1037.59 1037.75 1037.75 1037.75
994.98 998.81 1001.36 1003.27 1005.51 1008.15 1010.28 1011.19 1011.32 1012.57 1015.04 1016.20 1017.32 1018.59 1019.29 1019.81 1020.78 1020.64 1019.59 1019.57 1019.76 1020.51 1021.23 1021.91 1022.61 1023.66 1024.41 1025.14 1025.46 1026.04 1026.79 1026.99 1027.77 1028.99 1030.03 1030.79 1031.79 1032.60 1032.99 1033.54 1034.04 1034.42 1034.49 1034.86 1035.47 1035.75 1036.16 1036.46 1036.72 1036.98 1037.32 1037.49 1037.72 1037.75
996.72 1001.23 1001.81 1004.00 1005.59 1007.02 1008.65 1009.69 1010.15 1010.98 1013.33 1015.15 1016.11 1017.47 1018.22 1018.98 1019.28 1018.81 1018.26 1018.51 1019.08 1019.60 1020.43 1021.45 1022.29 1022.47 1022.94 1023.94 1025.20 1026.26 1026.84 1027.05 1027.75 1028.68 1030.06 1030.64 1031.49 1032.66 1033.25 1033.55 1033.91 1034.32 1034.70 1034.85 1035.18 1035.47 1035.92 1036.45 1036.72 1036.91 1037.11 1037.26 1037.51 1037.63
998.50 1000.66 1001.66 1002.72 1004.52 1005.27 1007.12 1008.32 1009.21 1010.01 1011.47 1013.49 1015.15 1016.30 1016.78 1017.30 1017.80 1016.26 1015.79 1016.47 1017.21 1018.02 1019.19 1019.97 1020.54 1021.54 1022.53 1023.16 1024.40 1025.81 1026.54 1026.90 1027.75 1028.75 1029.98 1030.50 1030.95 1031.53 1032.32 1033.03 1033.66 1034.28 1034.57 1034.54 1034.64 1035.09 1035.55 1035.97 1036.26 1036.65 1036.85 1037.15 1037.37 1037.51
999.48 1000.74 1001.53 1001.44 1002.14 1003.56 1006.02 1007.17 1007.77 1008.37 1009.81 1011.50 1013.20 1014.51 1014.98 1015.45 1014.71 1014.21 1014.20 1014.40 1015.62 1017.39 1018.41 1018.91 1019.39 1020.23 1021.51 1023.01 1024.45 1025.56 1026.48 1027.00 1027.42 1028.27 1029.34 1030.41 1031.04 1031.23 1031.64 1032.15 1032.59 1032.95 1033.64 1034.10 1034.39 1034.80 1035.08 1035.45 1035.82 1036.27 1036.53 1036.75 1036.93 1037.09
999.02 1000.08 1000.22 1001.06 1002.06 1003.14 1004.26 1006.04 1006.88 1007.03 1007.83 1009.07 1010.80 1012.09 1012.17 1012.12 1012.35 1012.71 1012.72 1013.47 1014.40 1016.31 1017.79 1018.88 1019.65 1020.50 1021.88 1023.15 1024.30 1025.49 1026.81 1027.57 1028.44 1029.19 1030.12 1030.89 1031.33 1031.78 1032.03 1032.30 1032.55 1032.83 1033.06 1033.61 1034.08 1034.62 1034.90 1035.20 1035.57 1035.87 1036.18 1036.44 1036.68 1036.88
998.75 999.56 999.85 1001.23 1002.39 1003.17 1003.79 1004.06 1005.15 1005.46 1006.30 1007.57 1009.03 1010.78 1011.58 1011.81 1011.69 1011.29 1012.17 1013.51 1014.75 1015.80 1017.05 1018.74 1020.68 1021.74 1022.90 1023.89 1024.67 1025.54 1026.34 1026.89 1027.86 1028.98 1029.76 1030.51 1031.22 1031.57 1031.95 1032.21 1032.58 1032.76 1033.17 1033.48 1033.93 1034.29 1034.57 1034.87 1035.23 1035.57 1035.88 1036.18 1036.43 1036.74
999.75 1000.19 1001.13 1002.27 1002.62 1003.81 1004.55 1004.42 1004.81 1005.98 1007.27 1008.03 1008.60 1010.14 1011.76 1012.37 1012.23 1012.35 1012.92 1013.81 1014.94 1015.80 1017.19 1018.77 1020.26 1021.47 1022.69 1023.63 1025.00 1026.15 1026.50 1026.60 1026.80 1027.32 1028.39 1029.22 1029.78 1030.28 1031.10 1031.59 1032.08 1032.66 1033.16 1033.48 1033.93 1034.20 1034.48 1034.86 1035.28 1035.65 1035.90 1036.14 1036.40 1036.55
1000.06 1000.64 1001.54 1002.94 1004.42 1004.99 1004.83 1005.24 1006.04 1006.93 1007.44 1007.99 1008.26 1008.82 1010.31 1012.31 1013.86 1014.69 1014.72 1014.93 1015.54 1016.59 1018.30 1019.87 1020.75 1021.64 1022.27 1023.47 1024.30 1025.34 1026.52 1027.11 1027.19 1027.62 1028.00 1028.43 1029.21 1029.80 1030.37 1030.96 1031.51 1032.16 1032.78 1033.31 1033.74 1034.03 1034.37 1034.75 1035.06 1035.21 1035.38 1035.51 1035.77 1035.98
1000.39 1001.21 1002.02 1003.33 1005.08 1005.86 1005.77 1006.00 1006.88 1007.84 1008.66 1008.84 1009.23 1009.57 1010.73 1011.74 1013.46 1015.42 1016.77 1016.65 1017.28 1018.14 1019.22 1019.50 1020.19 1021.16 1022.02 1022.96 1023.65 1024.40 1024.98 1025.96 1026.91 1027.46 1027.82 1028.12 1028.60 1029.26 1029.98 1030.81 1031.56 1032.14 1032.64 1033.14 1033.55 1033.81 1034.03 1034.26 1034.57 1034.71 1034.78 1035.04 1035.25 1035.56
1001.82 1002.54 1002.86 1003.50 1004.29 1005.63 1006.48 1006.04 1007.89 1009.52 1010.30 1010.78 1011.56 1012.02 1012.31 1012.58 1014.19 1016.49 1017.33 1017.37 1017.26 1017.71 1018.52 1019.42 1020.20 1021.25 1022.11 1022.77 1023.48 1024.47 1025.12 1025.97 1026.66 1027.17 1027.53 1027.84 1028.26 1029.07 1030.03 1030.81 1031.40 1031.89 1032.39 1032.85 1033.16 1033.31 1033.37 1033.67 1034.00 1034.04 1034.18 1034.43 1034.75 1035.07
Thickness
5585 5603 5609 5612 5616 5622 5625 5628 5633 5637 5643 5649 5656 5663 5667 5670 5673 5676 5654 5658 5664 5625 5605 5606 5609 5622 5619 5626 5628 5602 5597 5587 5583 5591 5601 5595 5591 5574 5566 5556 5547 5544 5532 5520 5483 5493 5512 5475 5463 5456 5450 5436 5421 5412
5578 5600 5602 5606 5611 5617 5621 5623 5626 5630 5636 5643 5648 5653 5659 5662 5667 5670 5654 5647 5648 5637 5599 5594 5592 5594 5597 5602 5607 5593 5606 5603 5605 5596 5582 5575 5575 5555 5562 5585 5523 5540 5528 5527 5511 5523 5485 5470 5464 5453 5441 5429 5420 5410
5571 5593 5597 5602 5604 5611 5616 5617 5620 5624 5630 5636 5640 5644 5650 5655 5660 5665 5648 5644 5642 5613 5591 5594 5587 5586 5588 5590 5592 5602 5590 5591 5587 5576 5572 5558 5565 5559 5574 5566 5546 5516 5502 5512 5493 5493 5477 5466 5456 5447 5440 5428 5416 5409
5569 5587 5591 5596 5598 5604 5611 5612 5613 5616 5622 5628 5632 5637 5641 5647 5652 5657 5649 5639 5642 5625 5598 5574 5574 5576 5575 5582 5586 5589 5589 5577 5571 5565 5558 5557 5565 5540 5558 5543 5541 5527 5506 5510 5506 5488 5473 5462 5455 5445 5435 5423 5416 5409
5564 5580 5584 5590 5593 5597 5605 5605 5607 5610 5614 5620 5623 5629 5634 5638 5643 5642 5637 5626 5632 5645 5589 5572 5563 5562 5565 5572 5576 5579 5580 5578 5572 5564 5557 5555 5542 5539 5522 5520 5534 5520 5529 5524 5531 5500 5487 5471 5452 5440 5433 5427 5417 5406
5562 5576 5581 5583 5588 5593 5598 5600 5600 5603 5606 5610 5615 5619 5626 5629 5635 5645 5618 5616 5621 5627 5600 5570 5549 5553 5556 5560 5563 5563 5562 5559 5555 5556 5546 5536 5526 5533 5534 5547 5545 5526 5515 5511 5502 5487 5475 5460 5448 5437 5431 5424 5414 5406
5551 5573 5576 5578 5581 5587 5592 5593 5594 5593 5598 5599 5603 5608 5615 5621 5624 5623 5618 5610 5611 5616 5592 5552 5550 5545 5545 5550 5550 5550 5547 5543 5549 5537 5539 5538 5528 5521 5523 5546 5541 5521 5511 5499 5491 5479 5469 5455 5448 5435 5429 5423 5414 5404
5549 5570 5571 5573 5575 5582 5586 5585 5587 5585 5587 5589 5594 5599 5604 5609 5604 5599 5589 5597 5602 5600 5590 5556 5529 5543 5539 5547 5547 5534 5539 5535 5525 5525 5524 5531 5515 5512 5521 5545 5526 5516 5505 5495 5486 5475 5468 5454 5441 5435 5426 5421 5412 5406
5547 5566 5568 5571 5568 5578 5578 5578 5580 5578 5580 5584 5589 5592 5591 5584 5584 5579 5581 5588 5594 5594 5569 5562 5559 5552 5531 5528 5527 5530 5528 5533 5512 5526 5523 5515 5525 5526 5553 5536 5524 5513 5505 5496 5482 5472 5462 5453 5443 5433 5426 5421 5411 5402
5548 5564 5563 5567 5567 5572 5572 5572 5573 5572 5574 5575 5578 5576 5555 5553 5559 5566 5573 5581 5571 5558 5555 5542 5538 5535 5533 5525 5517 5525 5515 5517 5529 5517 5503 5508 5542 5543 5532 5533 5526 5511 5502 5491 5478 5468 5458 5449 5441 5431 5422 5414 5404 5395
5546 5558 5564 5569 5562 5565 5568 5567 5565 5566 5565 5561 5542 5536 5539 5544 5552 5551 5539 5550 5545 5552 5537 5531 5535 5531 5513 5534 5522 5506 5510 5494 5523 5514 5507 5530 5540 5538 5532 5527 5519 5506 5495 5486 5477 5468 5456 5446 5434 5425 5418 5409 5402 5393
5540 5555 5559 5568 5561 5561 5564 5562 5560 5565 5559 5557 5556 5540 5530 5527 5521 5528 5514 5517 5538 5566 5529 5537 5529 5524 5509 5511 5515 5496 5502 5492 5524 5495 5499 5530 5549 5531 5524 5520 5509 5498 5486 5476 5465 5456 5445 5435 5427 5420 5414 5406 5399 5390
5542 5551 5556 5560 5560 5558 5561 5557 5557 5557 5561 5554 5538 5519 5521 5503 5517 5528 5530 5535 5537 5533 5528 5527 5522 5513 5500 5500 5494 5498 5503 5509 5489 5494 5526 5543 5535 5523 5520 5512 5499 5489 5478 5468 5457 5448 5439 5430 5421 5413 5408 5401 5395 5387
5545 5547 5551 5557 5559 5557 5554 5549 5552 5561 5559 5532 5523 5516 5521 5507 5523 5549 5581 5571 5551 5541 5534 5532 5517 5520 5502 5498 5488 5505 5475 5484 5490 5500 5536 5548 5531 5519 5514 5505 5494 5481 5472 5464 5454 5444 5434 5425 5418 5408 5402 5394 5388 5381
5545 5545 5545 5550 5555 5549 5546 5549 5554 5556 5539 5524 5526 5541 5517 5521 5519 5534 5538 5537 5533 5533 5530 5518 5510 5510 5491 5482 5482 5471 5467 5492 5501 5541 5549 5536 5523 5514 5505 5498 5490 5477 5468 5458 5447 5437 5427 5418 5412 5407 5399 5392 5386 5376
5545 5536 5535 5548 5550 5545 5542 5538 5533 5528 5514 5517 5513 5512 5505 5513 5498 5517 5527 5526 5532 5526 5520 5519 5501 5504 5494 5491 5484 5500 5507 5522 5546 5534 5533 5520 5514 5508 5498 5491 5482 5469 5463 5454 5443 5432 5422 5412 5404 5398 5394 5388 5381 5371
5530 5531 5534 5541 5544 5539 5536 5524 5515 5523 5522 5504 5508 5512 5534 5543 5539 5523 5529 5526 5526 5527 5526 5511 5515 5516 5479 5488 5500 5507 5523 5547 5539 5526 5518 5516 5510 5501 5490 5482 5471 5460 5455 5448 5436 5425 5415 5404 5396 5391 5388 5385 5377 5368
5536 5535 5532 5538 5537 5526 5516 5506 5509 5507 5494 5487 5508 5511 5509 5523 5523 5517 5517 5519 5522 5514 5514 5522 5502 5491 5507 5513 5518 5533 5527 5522 5517 5510 5507 5502 5497 5487 5477 5470 5461 5451 5444 5435 5427 5418 5408 5400 5396 5392 5384 5380 5376 5366
5529 5533 5525 5533 5535 5512 5507 5490 5498 5486 5473 5479 5489 5491 5499 5506 5507 5518 5521 5516 5513 5514 5506 5506 5509 5516 5526 5529 5537 5529 5523 5518 5508 5499 5496 5492 5484 5474 5466 5457 5449 5440 5432 5423 5415 5410 5403 5395 5390 5384 5379 5374 5372 5360
5528 5534 5530 5532 5529 5496 5479 5467 5479 5479 5468 5469 5472 5474 5481 5487 5497 5502 5502 5500 5501 5500 5499 5500 5520 5527 5530 5529 5526 5526 5518 5508 5499 5489 5477 5471 5468 5460 5453 5446 5438 5429 5420 5411 5404 5399 5394 5390 5382 5376 5372 5369 5363 5353
5519 5519 5525 5520 5487 5482 5472 5462 5458 5459 5456 5459 5458 5463 5462 5471 5474 5481 5482 5488 5492 5497 5502 5511 5513 5515 5511 5511 5512 5508 5500 5497 5497 5500 5485 5463 5455 5451 5440 5433 5424 5416 5410 5405 5401 5396 5389 5387 5379 5373 5367 5361 5354 5343
5518 5508 5497 5486 5467 5449 5451 5449 5458 5455 5451 5450 5448 5452 5453 5456 5457 5467 5467 5481 5494 5496 5497 5504 5504 5500 5499 5496 5496 5496 5491 5487 5481 5475 5461 5449 5442 5435 5428 5420 5413 5407 5402 5397 5394 5390 5386 5381 5374 5367 5361 5355 5346 5335
5505 5493 5480 5465 5440 5427 5424 5438 5451 5448 5445 5438 5443 5442 5440 5445 5449 5455 5468 5480 5487 5489 5491 5491 5492 5493 5492 5485 5483 5479 5475 5472 5465 5455 5446 5441 5431 5424 5415 5407 5404 5399 5394 5388 5385 5382 5378 5373 5367 5360 5354 5346 5336 5326
5490 5462 5442 5438 5426 5415 5414 5422 5439 5444 5432 5431 5433 5431 5434 5439 5437 5447 5470 5474 5480 5479 5481 5480 5481 5474 5472 5469 5468 5463 5458 5458 5451 5442 5432 5425 5417 5408 5404 5399 5393 5389 5387 5383 5377 5375 5370 5366 5360 5354 5345 5336 5324 5315
5453 5413 5418 5405 5407 5417 5421 5431 5438 5446 5433 5428 5430 5426 5429 5432 5440 5452 5463 5468 5470 5478 5475 5472 5470 5474 5472 5465 5455 5447 5442 5442 5436 5429 5418 5414 5405 5392 5388 5385 5383 5380 5375 5375 5372 5370 5363 5355 5349 5343 5335 5326 5315 5306
5413 5399 5410 5414 5412 5427 5429 5432 5436 5443 5441 5432 5428 5429 5435 5440 5439 5463 5474 5473 5478 5477 5473 5473 5473 5468 5461 5457 5447 5434 5430 5429 5423 5415 5403 5400 5396 5392 5385 5378 5374 5369 5367 5370 5369 5363 5356 5349 5342 5333 5324 5313 5304 5297
5396 5394 5404 5421 5438 5444 5437 5445 5452 5450 5445 5435 5434 5437 5442 5442 5461 5473 5477 5486 5482 5472 5468 5469 5469 5464 5453 5441 5432 5424 5416 5414 5412 5405 5396 5387 5383 5382 5378 5375 5372 5372 5367 5364 5361 5354 5348 5341 5332 5321 5313 5304 5296 5292
5395 5400 5419 5431 5437 5445 5448 5444 5445 5447 5449 5453 5452 5446 5457 5472 5477 5475 5483 5482 5477 5467 5460 5454 5450 5444 5434 5425 5416 5408 5399 5394 5388 5381 5375 5371 5368 5366 5365 5364 5364 5364 5363 5357 5350 5342 5336 5329 5319 5311 5302 5294 5289 5286
5402 5410 5423 5418 5418 5422 5432 5447 5447 5460 5465 5469 5462 5456 5452 5455 5464 5476 5474 5464 5457 5454 5447 5434 5420 5415 5408 5403 5398 5392 5387 5385 5380 5371 5369 5364 5359 5358 5357 5357 5355 5354 5351 5345 5338 5331 5325 5317 5308 5300 5293 5288 5284 5279
5385 5393 5392 5391 5404 5407 5417 5434 5441 5445 5438 5440 5445 5440 5436 5437 5448 5451 5449 5445 5439 5436 5427 5417 5408 5401 5392 5388 5378 5372 5373 5375 5375 5374 5366 5362 5361 5359 5354 5351 5348 5343 5337 5331 5324 5318 5312 5304 5296 5288 5284 5281 5278 5276
5375 5379 5384 5384 5384 5397 5409 5416 5421 5421 5423 5430 5440 5440 5431 5419 5413 5413 5416 5418 5417 5414 5404 5393 5390 5386 5384 5376 5373 5366 5359 5358 5358 5358 5359 5359 5356 5353 5350 5346 5340 5333 5325 5317 5311 5306 5300 5294 5288 5284 5281 5279 5277 5274
5362 5371 5378 5374 5370 5373 5387 5396 5400 5401 5403 5407 5410 5414 5412 5414 5405 5390 5384 5389 5390 5386 5380 5382 5381 5377 5373 5367 5364 5361 5359 5354 5350 5350 5352 5352 5350 5346 5341 5334 5327 5318 5312 5306 5301 5296 5292 5288 5284 5281 5280 5277 5275 5271
5353 5357 5362 5366 5368 5367 5372 5388 5378 5371 5370 5373 5375 5380 5386 5394 5384 5367 5364 5371 5379 5379 5376 5370 5367 5361 5358 5358 5356 5351 5350 5347 5346 5345 5345 5343 5340 5335 5327 5320 5313 5307 5301 5296 5292 5289 5287 5285 5281 5281 5278 5275 5272 5269